IRIDIUM 170

Last updated on Fri Sep 11 2026 00:03:06 GMT+0000 (Coordinated Universal Time)

1 43930U 19002J 26253.46464923 .00000478 00000+0 71872-4 0 9994 2 43930 86.6109 317.9041 0002473 94.9788 265.1712 14.72254037411800
UTC large
Height (km)
Speed (km/s)
/
Latitude / Longitude
Inclination (degrees)
Orbital Period (minutes)
Azimuth
Elevation
Range (km)
Doppler Factor

Next 0 passes for location: London (51.5072 / 0.1276)

No passes found over London.
IRIDIUM 170